Weather History for KHZE - November, 2012

Change the Weather History Date:

Friday, November 30, 2012

  Actual Average (KN60) Record (KN60)
Temperature  
Mean Temperature 26 °F -  
Max Temperature 32 °F 29 °F 45 °F (1999)
Min Temperature 19 °F 13 °F -11 °F (2014)
Degree Days  
Heating Degree Days 40    
Moisture  
Dew Point 21 °F    
Average Humidity 83    
Maximum Humidity 93    
Minimum Humidity 69    
Precipitation  
Precipitation 0.00 in - - ()
Sea Level Pressure  
Sea Level Pressure 29.87 in    
Wind  
Wind Speed 8 mph (SSE)    
Max Wind Speed 13 mph    
Max Gust Speed 17 mph    
Visibility 9 miles    
Events      
Averages and records for this station are not official NWS values.
T = Trace of Precipitation, MM = Missing Value Source: NWS Daily Summary

Daily Weather History Graph

Daily Weather History Graph

Search for Another Location

Airport or City:

Trip Planner

Search our weather history database for the weather conditions in past years. The results will help you decide how hot, cold, wet, or windy it might be!

Date:

Astronomy

Nov. 30, 2012 Rise Set
Actual Time 8:11 AM CST 4:58 PM CST
Civil Twilight 7:36 AM CST 5:33 PM CST
Nautical Twilight 6:58 AM CST 6:11 PM CST
Astronomical Twilight 6:21 AM CST 6:48 PM CST
Moon 6:55 PM CST (11/30) 9:44 AM CST (11/30)
Length of Visible Light 9h 56m
Length of Day
8h 46m
Waning Gibbous, 96% of the Moon is Illuminated
Nov 30
Waning Gibbous
Dec 6
Last Quarter
Dec 13
New
Dec 19
First Quarter
Dec 28
Full

Hourly Weather History & Observations

Time (CST) Temp. Windchill Dew Point Humidity Pressure Visibility Wind Dir Wind Speed Gust Speed Precip Events Conditions
12:15 AM 19.4 °F 10.4 °F 15.8 °F 86% 30.07 in 10.0 mi South 6.9 mph - N/A   Overcast
12:35 AM 19.4 °F 9.5 °F 17.6 °F 93% 30.06 in 10.0 mi South 8.1 mph - N/A   Overcast
12:55 AM 19.4 °F 9.5 °F 17.6 °F 93% 30.06 in 10.0 mi SSE 8.1 mph - N/A   Overcast
1:15 AM 19.4 °F 9.5 °F 17.6 °F 93% 30.06 in 9.0 mi South 8.1 mph - N/A   Overcast
1:35 AM 19.4 °F 10.4 °F 17.6 °F 93% 30.05 in 9.0 mi SSE 6.9 mph - N/A   Overcast
1:55 AM 21.2 °F 11.7 °F 17.6 °F 86% 30.04 in 9.0 mi South 8.1 mph - N/A   Overcast
2:15 AM 21.2 °F 11.7 °F 17.6 °F 86% 30.05 in 10.0 mi South 8.1 mph - N/A   Overcast
2:35 AM 21.2 °F 11.7 °F 17.6 °F 86% 30.04 in 9.0 mi SSE 8.1 mph - N/A   Overcast
2:55 AM 19.4 °F 10.4 °F 17.6 °F 93% 30.02 in 8.0 mi SSE 6.9 mph - N/A   Overcast
3:15 AM 19.4 °F 8.6 °F 17.6 °F 93% 30.02 in 9.0 mi South 9.2 mph - N/A   Overcast
3:35 AM 19.4 °F 7.9 °F 17.6 °F 93% 30.03 in 8.0 mi South 10.4 mph - N/A   Overcast
3:55 AM 21.2 °F 11.7 °F 17.6 °F 86% 30.01 in 7.0 mi South 8.1 mph - N/A   Overcast
4:15 AM 21.2 °F 11.7 °F 17.6 °F 86% 30.00 in 7.0 mi SE 8.1 mph - N/A   Overcast
4:35 AM 19.4 °F 8.6 °F 17.6 °F 93% 29.98 in 7.0 mi SE 9.2 mph - N/A   Overcast
4:55 AM 21.2 °F 13.6 °F 19.4 °F 93% 30.00 in 6.0 mi SSE 5.8 mph - N/A   Overcast
5:15 AM 21.2 °F 11.7 °F 19.4 °F 93% 29.99 in 7.0 mi SE 8.1 mph - N/A   Overcast
5:35 AM 21.2 °F 11.7 °F 19.4 °F 93% 29.99 in 7.0 mi South 8.1 mph - N/A   Overcast
5:55 AM 21.2 °F 9.5 °F 19.4 °F 93% 30.00 in 7.0 mi South 11.5 mph - N/A   Overcast
6:15 AM 21.2 °F 10.9 °F 19.4 °F 93% 29.99 in 6.0 mi SSE 9.2 mph - N/A   Overcast
6:35 AM 21.2 °F 10.9 °F 19.4 °F 93% 29.99 in 5.0 mi SSE 9.2 mph - N/A   Overcast
6:55 AM 23.0 °F 13.9 °F 19.4 °F 86% 29.99 in 6.0 mi SSE 8.1 mph - N/A   Overcast
7:15 AM 23.0 °F 13.1 °F 19.4 °F 86% 29.99 in 6.0 mi South 9.2 mph - N/A   Overcast
7:35 AM 23.0 °F 15.8 °F 19.4 °F 86% 29.98 in 6.0 mi SSE 5.8 mph - N/A   Overcast
7:55 AM 23.0 °F 14.7 °F 19.4 °F 86% 29.98 in 6.0 mi SSE 6.9 mph - N/A   Overcast
8:15 AM 21.2 °F 10.9 °F 19.4 °F 93% 29.96 in 6.0 mi SSE 9.2 mph - N/A   Overcast
8:35 AM 21.2 °F 10.9 °F 19.4 °F 93% 29.95 in 5.0 mi SE 9.2 mph - N/A   Overcast
8:55 AM 21.2 °F 12.6 °F 19.4 °F 93% 29.94 in 5.0 mi SE 6.9 mph - N/A   Overcast
9:15 AM 21.2 °F 14.9 °F 19.4 °F 93% 29.94 in 6.0 mi SE 4.6 mph - N/A   Mostly Cloudy
9:35 AM 23.0 °F 13.9 °F 19.4 °F 86% 29.93 in 7.0 mi SSE 8.1 mph - N/A   Partly Cloudy
9:55 AM 23.0 °F 15.8 °F 19.4 °F 86% 29.92 in 8.0 mi SSE 5.8 mph - N/A   Clear
10:15 AM 24.8 °F 17.9 °F 19.4 °F 80% 29.92 in 8.0 mi SSE 5.8 mph - N/A   Clear
10:35 AM 24.8 °F 13.4 °F 19.4 °F 80% 29.93 in 9.0 mi SSE 12.7 mph - N/A   Clear
10:55 AM 26.6 °F 19.1 °F 21.2 °F 80% 29.93 in 9.0 mi SSE 6.9 mph - N/A   Clear
11:15 AM 28.4 °F 18.0 °F 21.2 °F 74% 29.93 in 10.0 mi South 12.7 mph - N/A   Clear
11:35 AM 28.4 °F 21.2 °F 23.0 °F 80% 29.91 in 10.0 mi SSE 6.9 mph - N/A   Clear
11:55 AM 28.4 °F 19.7 °F 23.0 °F 80% 29.89 in 10.0 mi SE 9.2 mph - N/A   Clear
12:15 PM 30.2 °F 21.3 °F 23.0 °F 75% 29.87 in 9.0 mi SSE 10.4 mph - N/A   Clear
12:35 PM 32.0 °F 23.6 °F 23.0 °F 69% 29.86 in 10.0 mi SE 10.4 mph - N/A   Clear
12:55 PM 32.0 °F 23.0 °F 23.0 °F 69% 29.85 in 10.0 mi SSE 11.5 mph - N/A   Clear
1:15 PM 32.0 °F 22.5 °F 23.0 °F 69% 29.84 in 10.0 mi SSE 12.7 mph - N/A   Clear
1:35 PM 32.0 °F 23.0 °F 23.0 °F 69% 29.83 in 10.0 mi SSE 11.5 mph - N/A   Clear
1:55 PM 32.0 °F 23.0 °F 23.0 °F 69% 29.83 in 10.0 mi SSE 11.5 mph - N/A   Clear
2:15 PM 32.0 °F 23.0 °F 24.8 °F 75% 29.81 in 10.0 mi SSE 11.5 mph - N/A   Clear
2:35 PM 32.0 °F 24.8 °F 24.8 °F 75% 29.81 in 10.0 mi SE 8.1 mph - N/A   Clear
2:55 PM 32.0 °F 23.6 °F 24.8 °F 75% 29.78 in 9.0 mi SE 10.4 mph - N/A   Clear
3:15 PM 32.0 °F 22.5 °F 24.8 °F 75% 29.77 in 10.0 mi SSE 12.7 mph 17.3 mph N/A   Clear
3:35 PM 32.0 °F 24.2 °F 24.8 °F 75% 29.77 in 10.0 mi SSE 9.2 mph - N/A   Clear
3:55 PM 32.0 °F 24.8 °F 23.0 °F 69% 29.76 in 10.0 mi SE 8.1 mph - N/A   Clear
4:15 PM 32.0 °F 25.6 °F 24.8 °F 75% 29.76 in 10.0 mi SE 6.9 mph - N/A   Clear
4:35 PM 32.0 °F 23.0 °F 24.8 °F 75% 29.74 in 10.0 mi SE 11.5 mph - N/A   Clear
4:55 PM 30.2 °F 21.9 °F 23.0 °F 75% 29.74 in 10.0 mi SSE 9.2 mph - N/A   Clear
5:15 PM 30.2 °F 23.4 °F 24.8 °F 80% 29.73 in 10.0 mi SE 6.9 mph - N/A   Clear
5:35 PM 30.2 °F 25.4 °F 24.8 °F 80% 29.74 in 10.0 mi South 4.6 mph - N/A   Clear
5:55 PM 30.2 °F 22.6 °F 24.8 °F 80% 29.74 in 10.0 mi SSE 8.1 mph - N/A   Clear
6:15 PM 32.0 °F 28.7 °F 24.8 °F 75% 29.74 in 9.0 mi South 3.5 mph - N/A   Clear
6:35 PM 32.0 °F 27.5 °F 24.8 °F 75% 29.72 in 10.0 mi SSE 4.6 mph - N/A   Clear
7:15 PM 32.0 °F 25.6 °F 24.8 °F 75% 29.70 in 10.0 mi South 6.9 mph - N/A   Clear
7:35 PM 32.0 °F 24.8 °F 24.8 °F 75% 29.71 in 10.0 mi South 8.1 mph - N/A   Clear
7:55 PM 32.0 °F 24.8 °F 24.8 °F 75% 29.70 in 10.0 mi South 8.1 mph - N/A   Partly Cloudy
8:15 PM 32.0 °F 25.6 °F 24.8 °F 75% 29.70 in 10.0 mi SSW 6.9 mph - N/A   Partly Cloudy
8:35 PM 32.0 °F 25.6 °F 24.8 °F 75% 29.68 in 10.0 mi South 6.9 mph - N/A   Mostly Cloudy
8:55 PM 32.0 °F - 24.8 °F 75% 29.68 in 10.0 mi Calm Calm - N/A   Mostly Cloudy
9:15 PM 32.0 °F - 24.8 °F 75% 29.68 in 10.0 mi Calm Calm - N/A   Mostly Cloudy
9:35 PM 30.2 °F 25.4 °F 24.8 °F 80% 29.68 in 10.0 mi SSE 4.6 mph - N/A   Scattered Clouds
9:55 PM 28.4 °F 23.3 °F 24.8 °F 86% 29.68 in 10.0 mi South 4.6 mph - N/A   Overcast
10:15 PM 26.6 °F 21.2 °F 23.0 °F 86% 29.67 in 10.0 mi South 4.6 mph - N/A   Overcast
10:35 PM 26.6 °F 20.0 °F 24.8 °F 93% 29.67 in 9.0 mi South 5.8 mph - N/A   Overcast
10:55 PM 26.6 °F 19.1 °F 23.0 °F 86% 29.66 in 8.0 mi South 6.9 mph - N/A   Mostly Cloudy
11:15 PM 24.8 °F 20.5 °F 23.0 °F 93% 29.66 in 7.0 mi SSE 3.5 mph - N/A   Clear
11:35 PM 24.8 °F - 23.0 °F 93% 29.65 in 6.0 mi Calm Calm - N/A   Clear